WZZ973 EPGD-EFTU

Flight info

Callsign WZZ973
Flight time 1h 7m
Altitude 35000
Route VAPOS N133 PENOR DCT ANFEV DCT DIPEB DCT VEDEN DCT NISIX DCT EMPOM
Aircraft A321/M-SDE1E2E3FGIJ1J4RWXY/LB1

Departure

Time 2026-05-06 12:45
Airport Gdańsk Lech Wałęsa Airport (EPGD)

Arrival

Time 2026-05-06 13:52
Airport Turku Airport (EFTU)
Time Latitude Longitude Altitude Speed Heading
2026-05-06 12:21 54.38158 18.46442 460 ft 0 kts 23°
2026-05-06 12:39 54.38152 18.46438 460 ft 4 kts 19°
2026-05-06 12:39 54.38127 18.46433 455 ft 4 kts 340°
2026-05-06 12:39 54.38107 18.46457 457 ft 4 kts 300°
2026-05-06 12:39 54.38103 18.46469 457 ft 0 kts 293°
2026-05-06 12:42 54.38110 18.46440 459 ft 7 kts 293°
2026-05-06 12:42 54.38140 18.46320 458 ft 13 kts 293°
2026-05-06 12:42 54.38176 18.46174 459 ft 10 kts 291°
2026-05-06 12:42 54.38148 18.46090 460 ft 10 kts 204°
2026-05-06 12:43 54.38096 18.46020 460 ft 10 kts 255°
2026-05-06 12:43 54.38118 18.45889 456 ft 14 kts 293°
2026-05-06 12:43 54.38148 18.45714 455 ft 15 kts 264°
2026-05-06 12:43 54.38082 18.45612 455 ft 12 kts 209°
2026-05-06 12:44 54.38029 18.45557 455 ft 8 kts 173°
2026-05-06 12:44 54.37999 18.45649 456 ft 14 kts 113°
2026-05-06 12:44 54.37870 18.46170 458 ft 85 kts 113°
2026-05-06 12:44 54.37555 18.47449 468 ft 145 kts 112°
2026-05-06 12:45 54.37152 18.49048 1144 ft 141 kts 105°
2026-05-06 12:45 54.36767 18.50580 1918 ft 140 kts 108°
2026-05-06 12:45 54.35899 18.54121 2498 ft 183 kts 112°
2026-05-06 12:46 54.35372 18.56255 2738 ft 204 kts 114°
2026-05-06 12:46 54.34802 18.58549 3320 ft 213 kts 115°
2026-05-06 12:46 54.34217 18.60908 4094 ft 216 kts 118°
2026-05-06 12:46 54.33618 18.63318 4782 ft 224 kts 118°
2026-05-06 12:47 54.33293 18.66011 5343 ft 244 kts 86°
2026-05-06 12:47 54.33940 18.68797 5837 ft 268 kts 58°
2026-05-06 12:47 54.35389 18.71003 6177 ft 294 kts 26°
2026-05-06 12:47 54.37410 18.71625 6739 ft 300 kts 350°
2026-05-06 12:48 54.39332 18.70389 7423 ft 295 kts 323°
2026-05-06 12:48 54.41036 18.68420 8201 ft 296 kts 320°
2026-05-06 12:48 54.42729 18.66372 8947 ft 299 kts 320°
2026-05-06 12:48 54.44431 18.64290 9689 ft 302 kts 319°
2026-05-06 12:49 54.46169 18.62165 10157 ft 316 kts 320°
2026-05-06 12:49 54.48018 18.59905 10313 ft 339 kts 320°
2026-05-06 12:49 54.50010 18.57481 10458 ft 360 kts 320°
2026-05-06 12:49 54.52094 18.54971 10913 ft 369 kts 320°
2026-05-06 12:50 54.54218 18.52433 11588 ft 374 kts 321°
2026-05-06 12:50 54.56370 18.49864 12302 ft 378 kts 320°
2026-05-06 12:50 54.58541 18.47264 13031 ft 382 kts 320°
2026-05-06 12:50 54.60733 18.44630 13745 ft 386 kts 320°
2026-05-06 12:51 54.62940 18.41966 14378 ft 389 kts 320°
2026-05-06 12:51 54.65161 18.39278 15028 ft 392 kts 320°
2026-05-06 12:51 54.67403 18.36566 15666 ft 395 kts 320°
2026-05-06 12:51 54.69658 18.33837 16299 ft 397 kts 320°
2026-05-06 12:52 54.71433 18.31526 16821 ft 398 kts 316°
2026-05-06 12:52 54.73647 18.28600 17407 ft 403 kts 319°
2026-05-06 12:52 54.75951 18.25801 18004 ft 407 kts 321°
2026-05-06 12:52 54.78307 18.23053 18542 ft 410 kts 322°
2026-05-06 12:53 54.80685 18.20300 19067 ft 413 kts 322°
2026-05-06 12:53 54.83072 18.17502 19592 ft 416 kts 321°
2026-05-06 12:53 54.85459 18.14643 20084 ft 419 kts 321°
2026-05-06 12:53 54.87852 18.11727 20592 ft 421 kts 321°
2026-05-06 12:54 54.90249 18.08767 21069 ft 424 kts 320°
2026-05-06 12:54 54.92654 18.05776 21550 ft 427 kts 320°
2026-05-06 12:54 54.95076 18.02763 22022 ft 429 kts 320°
2026-05-06 12:54 54.97515 17.99735 22494 ft 432 kts 321°
2026-05-06 12:55 54.99977 17.96688 22966 ft 436 kts 321°
2026-05-06 12:55 55.02461 17.93617 23452 ft 440 kts 321°
2026-05-06 12:55 55.04963 17.90525 23866 ft 442 kts 321°
2026-05-06 12:55 55.07482 17.87417 24269 ft 444 kts 321°
2026-05-06 12:56 55.10011 17.84290 24645 ft 447 kts 321°
2026-05-06 12:56 55.12520 17.81170 25049 ft 449 kts 322°
2026-05-06 12:56 55.15102 17.77946 25475 ft 451 kts 322°
2026-05-06 12:56 55.17624 17.74794 25807 ft 454 kts 322°
2026-05-06 12:57 55.20202 17.71565 26113 ft 458 kts 321°
2026-05-06 12:57 55.22795 17.68305 26464 ft 459 kts 322°
2026-05-06 12:57 55.25397 17.65031 26801 ft 463 kts 322°
2026-05-06 12:57 55.28021 17.61731 27096 ft 466 kts 322°
2026-05-06 12:58 55.30660 17.58414 27409 ft 469 kts 322°
2026-05-06 12:58 55.33319 17.55066 27727 ft 471 kts 322°
2026-05-06 12:58 55.35985 17.51701 28088 ft 473 kts 322°
2026-05-06 12:58 55.38665 17.48308 28400 ft 476 kts 322°
2026-05-06 12:59 55.41355 17.44897 28749 ft 478 kts 322°
2026-05-06 12:59 55.44055 17.41473 29180 ft 477 kts 322°
2026-05-06 12:59 55.46741 17.38061 29697 ft 475 kts 322°
2026-05-06 12:59 55.49419 17.34650 30113 ft 475 kts 322°
2026-05-06 13:00 55.52094 17.31234 30501 ft 474 kts 322°
2026-05-06 13:00 55.54758 17.27829 30886 ft 473 kts 322°
2026-05-06 13:00 55.57478 17.24532 31233 ft 475 kts 328°
2026-05-06 13:00 55.60458 17.22008 31592 ft 476 kts 339°
2026-05-06 13:01 55.63647 17.20429 31969 ft 477 kts 349°
2026-05-06 13:01 55.66958 17.19874 32225 ft 480 kts
2026-05-06 13:01 55.70289 17.20410 32498 ft 482 kts 11°
2026-05-06 13:01 55.73522 17.21931 32817 ft 481 kts 20°
2026-05-06 13:02 55.76601 17.24245 33167 ft 479 kts 28°
2026-05-06 13:02 55.79455 17.27267 33518 ft 477 kts 37°
2026-05-06 13:02 55.82025 17.30965 33863 ft 474 kts 46°
2026-05-06 13:02 55.84340 17.35117 34156 ft 473 kts 48°
2026-05-06 13:03 55.86641 17.39307 34410 ft 473 kts 48°
2026-05-06 13:03 55.88943 17.43506 34637 ft 475 kts 48°
2026-05-06 13:03 55.91254 17.47726 34839 ft 477 kts 48°
2026-05-06 13:04 55.95891 17.56228 34937 ft 478 kts 48°
2026-05-06 13:04 56.00516 17.64741 34938 ft 478 kts 48°
2026-05-06 13:05 56.05138 17.73270 34937 ft 477 kts 48°
2026-05-06 13:05 56.09757 17.81811 34940 ft 478 kts 48°
2026-05-06 13:06 56.14393 17.90423 34939 ft 481 kts 49°
2026-05-06 13:06 56.18901 17.99296 34932 ft 479 kts 57°
2026-05-06 13:07 56.22751 18.09052 34941 ft 479 kts 58°
2026-05-06 13:07 56.26598 18.18839 34947 ft 479 kts 58°
2026-05-06 13:08 56.30439 18.28644 34956 ft 479 kts 58°
2026-05-06 13:08 56.34247 18.38437 34941 ft 481 kts 58°
2026-05-06 13:09 56.38087 18.48353 34943 ft 483 kts 58°
2026-05-06 13:09 56.41934 18.58303 34951 ft 484 kts 58°
2026-05-06 13:10 56.45771 18.68287 34955 ft 484 kts 58°
2026-05-06 13:10 56.49637 18.78252 34958 ft 485 kts 53°
2026-05-06 13:11 56.54638 18.86500 34927 ft 490 kts 32°
2026-05-06 13:11 56.60834 18.91601 34934 ft 490 kts 14°
2026-05-06 13:12 56.67402 18.95005 34941 ft 492 kts 14°
2026-05-06 13:12 56.73987 18.98442 34949 ft 493 kts 14°
2026-05-06 13:13 56.80590 19.01884 34994 ft 494 kts 14°
2026-05-06 13:13 56.87206 19.05343 34987 ft 495 kts 14°
2026-05-06 13:14 56.93832 19.08820 34990 ft 496 kts 14°
2026-05-06 13:14 57.00466 19.12323 34990 ft 496 kts 14°
2026-05-06 13:15 57.07069 19.15823 35005 ft 497 kts 13°
2026-05-06 13:15 57.13670 19.19324 35007 ft 497 kts 13°
2026-05-06 13:16 57.20308 19.22872 35000 ft 497 kts 14°
2026-05-06 13:16 57.26942 19.26429 35013 ft 497 kts 13°
2026-05-06 13:17 57.33575 19.29987 35016 ft 496 kts 14°
2026-05-06 13:17 57.40212 19.33566 35014 ft 496 kts 14°
2026-05-06 13:18 57.46841 19.37153 35006 ft 496 kts 14°
2026-05-06 13:18 57.53470 19.40747 35027 ft 496 kts 14°
2026-05-06 13:19 57.60092 19.44363 35024 ft 496 kts 13°
2026-05-06 13:19 57.66718 19.47988 35026 ft 496 kts 13°
2026-05-06 13:20 57.72271 19.51040 35023 ft 496 kts 13°
2026-05-06 13:20 57.78895 19.54702 35024 ft 496 kts 13°
2026-05-06 13:21 57.85524 19.58375 35036 ft 497 kts 13°
2026-05-06 13:21 57.92120 19.62045 35030 ft 498 kts 13°
2026-05-06 13:22 57.98771 19.65742 35036 ft 498 kts 13°
2026-05-06 13:22 58.05420 19.69467 35033 ft 499 kts 13°
2026-05-06 13:23 58.12072 19.73212 35045 ft 500 kts 13°
2026-05-06 13:23 58.18741 19.76986 35045 ft 500 kts 13°
2026-05-06 13:24 58.25415 19.80770 35032 ft 501 kts 13°
2026-05-06 13:24 58.32095 19.84558 35047 ft 501 kts 13°
2026-05-06 13:25 58.38780 19.88375 35055 ft 502 kts 12°
2026-05-06 13:25 58.45470 19.92211 35050 ft 502 kts 12°
2026-05-06 13:26 58.52163 19.96053 35050 ft 502 kts 12°
2026-05-06 13:26 58.58851 19.99921 35048 ft 502 kts 12°
2026-05-06 13:27 58.65545 20.03824 35046 ft 502 kts 11°
2026-05-06 13:27 58.72236 20.07726 35043 ft 503 kts 11°
2026-05-06 13:28 58.78933 20.11639 35044 ft 503 kts 11°
2026-05-06 13:28 58.85630 20.15566 35049 ft 503 kts 11°
2026-05-06 13:29 58.92333 20.19521 35074 ft 504 kts 11°
2026-05-06 13:29 58.99045 20.23489 35059 ft 505 kts 11°
2026-05-06 13:30 59.05761 20.27482 35055 ft 505 kts 11°
2026-05-06 13:30 59.12479 20.31501 35054 ft 505 kts 11°
2026-05-06 13:31 59.19200 20.35527 35058 ft 505 kts 10°
2026-05-06 13:31 59.25917 20.39557 35053 ft 505 kts 11°
2026-05-06 13:32 59.32466 20.44482 35043 ft 515 kts 24°
2026-05-06 13:32 59.38474 20.52318 35042 ft 521 kts 32°
2026-05-06 13:33 59.44388 20.60556 34950 ft 522 kts 31°
2026-05-06 13:33 59.47368 20.64702 34019 ft 529 kts 31°
2026-05-06 13:33 59.50386 20.68898 32493 ft 535 kts 31°
2026-05-06 13:33 59.53447 20.73164 30919 ft 542 kts 31°
2026-05-06 13:34 59.56538 20.77493 29222 ft 548 kts 31°
2026-05-06 13:34 59.59639 20.81872 27733 ft 546 kts 31°
2026-05-06 13:34 59.62704 20.86224 26531 ft 538 kts 31°
2026-05-06 13:34 59.65705 20.90495 25571 ft 525 kts 31°
2026-05-06 13:35 59.68630 20.94662 24857 ft 509 kts 30°
2026-05-06 13:35 59.71454 20.98696 24208 ft 493 kts 30°
2026-05-06 13:35 59.74190 21.02605 23522 ft 478 kts 30°
2026-05-06 13:35 59.76849 21.06396 22832 ft 462 kts 30°
2026-05-06 13:36 59.79417 21.10060 22233 ft 448 kts 30°
2026-05-06 13:36 59.81911 21.13622 21631 ft 435 kts 30°
2026-05-06 13:36 59.84344 21.17103 21085 ft 431 kts 30°
2026-05-06 13:36 59.86780 21.20587 20519 ft 431 kts 30°
2026-05-06 13:37 59.89212 21.24071 19984 ft 430 kts 30°
2026-05-06 13:37 59.91633 21.27548 19453 ft 428 kts 31°
2026-05-06 13:37 59.94042 21.31022 18931 ft 427 kts 31°
2026-05-06 13:37 59.96438 21.34493 18404 ft 425 kts 31°
2026-05-06 13:38 59.98824 21.37962 17828 ft 423 kts 31°
2026-05-06 13:38 60.01191 21.41410 17290 ft 419 kts 31°
2026-05-06 13:38 60.03536 21.44827 16752 ft 415 kts 31°
2026-05-06 13:38 60.05859 21.48218 16192 ft 412 kts 31°
2026-05-06 13:39 60.08164 21.51583 15634 ft 409 kts 31°
2026-05-06 13:39 60.10453 21.54928 15071 ft 406 kts 31°
2026-05-06 13:39 60.12724 21.58253 14502 ft 403 kts 32°
2026-05-06 13:39 60.14976 21.61561 13946 ft 400 kts 32°
2026-05-06 13:40 60.17205 21.64849 13299 ft 397 kts 32°
2026-05-06 13:40 60.19381 21.68097 12745 ft 392 kts 34°
2026-05-06 13:40 60.21349 21.71988 12180 ft 391 kts 47°
2026-05-06 13:40 60.22847 21.76525 11620 ft 390 kts 60°
2026-05-06 13:41 60.24071 21.81358 11052 ft 385 kts 61°
2026-05-06 13:41 60.25257 21.86045 10708 ft 374 kts 61°
2026-05-06 13:41 60.26425 21.90663 10588 ft 357 kts 61°
2026-05-06 13:41 60.27528 21.95026 10426 ft 342 kts 61°
2026-05-06 13:42 60.28586 21.99211 10314 ft 329 kts 61°
2026-05-06 13:42 60.29590 22.03189 10187 ft 317 kts 61°
2026-05-06 13:42 60.30568 22.07073 10050 ft 306 kts 61°
2026-05-06 13:42 60.31522 22.10859 9764 ft 300 kts 61°
2026-05-06 13:43 60.32466 22.14609 9375 ft 299 kts 62°
2026-05-06 13:43 60.33398 22.18330 8977 ft 297 kts 62°
2026-05-06 13:43 60.34326 22.22034 8666 ft 293 kts 62°
2026-05-06 13:43 60.35237 22.25680 8220 ft 289 kts 62°
2026-05-06 13:44 60.36135 22.29280 7697 ft 286 kts 62°
2026-05-06 13:44 60.37022 22.32828 7246 ft 281 kts 62°
2026-05-06 13:44 60.37897 22.36337 6749 ft 277 kts 62°
2026-05-06 13:44 60.38753 22.39774 6389 ft 268 kts 62°
2026-05-06 13:45 60.39565 22.43047 6244 ft 252 kts 63°
2026-05-06 13:45 60.41084 22.49205 5530 ft 244 kts 63°
2026-05-06 13:45 60.41838 22.52270 5107 ft 241 kts 63°
2026-05-06 13:46 60.42579 22.55280 4740 ft 237 kts 63°
2026-05-06 13:46 60.43318 22.58255 4405 ft 236 kts 60°
2026-05-06 13:46 60.44320 22.60830 4072 ft 233 kts 40°
2026-05-06 13:46 60.45679 22.62585 3749 ft 229 kts 20°
2026-05-06 13:47 60.47178 22.63318 3619 ft 215 kts
2026-05-06 13:47 60.48629 22.63201 3526 ft 206 kts 353°
2026-05-06 13:47 60.50048 22.62955 3459 ft 205 kts 352°
2026-05-06 13:47 60.51411 22.62480 3329 ft 194 kts 334°
2026-05-06 13:48 60.52404 22.60825 3239 ft 179 kts 303°
2026-05-06 13:48 60.52786 22.58535 3002 ft 173 kts 271°
2026-05-06 13:48 60.52678 22.56096 2868 ft 174 kts 266°
2026-05-06 13:48 60.52583 22.53652 2661 ft 174 kts 266°
2026-05-06 13:49 60.52484 22.51188 2433 ft 175 kts 266°
2026-05-06 13:49 60.52381 22.48734 2196 ft 172 kts 266°
2026-05-06 13:49 60.52282 22.46409 1968 ft 158 kts 266°
2026-05-06 13:49 60.52192 22.44284 1774 ft 144 kts 266°
2026-05-06 13:50 60.52108 22.42324 1565 ft 137 kts 266°
2026-05-06 13:50 60.52026 22.40398 1366 ft 137 kts 266°
2026-05-06 13:50 60.51943 22.38486 1182 ft 136 kts 266°
2026-05-06 13:50 60.51861 22.36574 991 ft 135 kts 267°
2026-05-06 13:51 60.51780 22.34694 796 ft 134 kts 267°
2026-05-06 13:51 60.51696 22.32802 575 ft 135 kts 268°
2026-05-06 13:51 60.51611 22.30894 405 ft 135 kts 268°
2026-05-06 13:51 60.51532 22.28998 220 ft 134 kts 267°
2026-05-06 13:52 60.51454 22.27186 169 ft 113 kts 265°
2026-05-06 13:52 60.51398 22.25942 166 ft 64 kts 265°
2026-05-06 13:52 60.51364 22.25362 159 ft 20 kts 249°
2026-05-06 13:52 60.51242 22.25277 153 ft 21 kts 152°
2026-05-06 13:53 60.51206 22.25541 156 ft 19 kts 84°
2026-05-06 13:53 60.51217 22.25793 163 ft 17 kts 85°
2026-05-06 13:53 60.51226 22.26009 169 ft 14 kts 83°
2026-05-06 13:53 60.51250 22.26201 170 ft 15 kts 66°
2026-05-06 13:54 60.51291 22.26396 171 ft 16 kts 76°
2026-05-06 13:54 60.51304 22.26624 171 ft 17 kts 86°
2026-05-06 13:54 60.51312 22.26866 173 ft 17 kts 84°
2026-05-06 13:54 60.51326 22.27118 172 ft 19 kts 83°
2026-05-06 13:55 60.51306 22.27295 171 ft 9 kts 158°
2026-05-06 13:55 60.51250 22.27267 174 ft 8 kts 182°
2026-05-06 13:55 60.51202 22.27311 175 ft 6 kts 149°
2026-05-06 13:55 60.51185 22.27331 175 ft 2 kts 149°
2026-05-06 13:56 60.51180 22.27336 175 ft 0 kts 149°